| time (UTC) | temp F | wind direction | speed knots | gust knots | rain 1hr in | rain 24hr in | rain mn in | humidity % | barometer mb |
| 20260504201831 | 82 | 95 | 10.4 | 17.4 | 0.00 | 0.00 | 0.00 | 61 | 1014.7 |
| 20260504200831 | 82 | 98 | 11.3 | 18.2 | 0.00 | 0.00 | 0.00 | 60 | 1014.7 |
| 20260504200332 | 83 | 99 | 11.3 | 18.2 | 0.00 | 0.00 | 0.00 | 60 | 1014.8 |
| 20260504194332 | 83 | 94 | 9.6 | 16.5 | 0.00 | 0.00 | 0.00 | 59 | 1015.2 |
| 20260504193831 | 82 | 97 | 9.6 | 13.9 | 0.00 | 0.00 | 0.00 | 61 | 1015.0 |
| 20260504193331 | 83 | 104 | 8.7 | 13.9 | 0.00 | 0.00 | 0.00 | 59 | 1015.2 |
| 20260504192831 | 82 | 104 | 7.8 | 13.9 | 0.00 | 0.00 | 0.00 | 60 | 1015.0 |
| 20260504192331 | 82 | 102 | 7.8 | 12.2 | 0.00 | 0.00 | 0.00 | 61 | 1015.2 |
| 20260504191831 | 82 | 97 | 8.7 | 17.4 | 0.00 | 0.00 | 0.00 | 61 | 1015.3 |
| 20260504190803 | 82 | 91 | 6.1 | 13.9 | 0.00 | 0.00 | 0.00 | 60 | 1015.4 |
| 20260504190301 | 82 | 91 | 5.2 | 12.2 | 0.00 | 0.00 | 0.00 | 59 | 1015.3 |
| 20260504185731 | 82 | 97 | 6.1 | 13.0 | 0.00 | 0.00 | 0.00 | 59 | 1015.5 |
| 20260504185231 | 81 | 91 | 4.3 | 13.0 | 0.00 | 0.00 | 0.00 | 61 | 1015.6 |
| 20260504184731 | 81 | 83 | 4.3 | 14.8 | 0.00 | 0.00 | 0.00 | 64 | 1015.6 |
| 20260504184231 | 81 | 84 | 7.8 | 14.8 | 0.00 | 0.00 | 0.00 | 60 | 1015.8 |
| 20260504183701 | 83 | 91 | 7.8 | 14.8 | 0.00 | 0.00 | 0.00 | 57 | 1015.9 |
| 20260504183201 | 84 | 99 | 7.0 | 13.0 | 0.00 | 0.00 | 0.00 | 57 | 1016.0 |
| 20260504182701 | 83 | 94 | 6.1 | 13.0 | 0.00 | 0.00 | 0.00 | 56 | 1016.0 |
| 20260504182201 | 82 | 94 | 5.2 | 11.3 | 0.00 | 0.00 | 0.00 | 56 | 1016.1 |
| 20260504181701 | 82 | 96 | 6.1 | 13.0 | 0.00 | 0.00 | 0.00 | 59 | 1016.1 |
| 20260504181201 | 81 | 83 | 5.2 | 13.0 | 0.00 | 0.00 | 0.00 | 60 | 1016.2 |
| 20260504180701 | 82 | 87 | 7.0 | 14.8 | 0.00 | 0.00 | 0.00 | 57 | 1016.1 |
| 20260504180201 | 82 | 92 | 7.8 | 14.8 | 0.00 | 0.00 | 0.00 | 57 | 1016.3 |
| 20260504175701 | 82 | 93 | 6.1 | 13.0 | 0.00 | 0.00 | 0.00 | 59 | 1016.4 |
| 20260504175201 | 82 | 94 | 5.2 | 12.2 | 0.00 | 0.00 | 0.00 | 54 | 1016.5 |
| 20260504174701 | 82 | 93 | 5.2 | 12.2 | 0.00 | 0.00 | 0.00 | 57 | 1016.4 |
| 20260504174201 | 82 | 93 | 7.0 | 13.9 | 0.00 | 0.00 | 0.00 | 55 | 1016.4 |
| 20260504173701 | 82 | 91 | 7.8 | 13.9 | 0.00 | 0.00 | 0.00 | 55 | 1016.4 |
| 20260504173201 | 81 | 80 | 5.2 | 13.0 | 0.00 | 0.00 | 0.00 | 55 | 1016.6 |
| 20260504172701 | 81 | 70 | 3.5 | 8.7 | 0.00 | 0.00 | 0.00 | 54 | 1016.6 |
| 20260504172201 | 81 | 74 | 4.3 | 13.9 | 0.00 | 0.00 | 0.00 | 53 | 1016.7 |
| 20260504171701 | 81 | 84 | 6.1 | 13.9 | 0.00 | 0.00 | 0.00 | 53 | 1016.7 |
| 20260504171201 | 82 | 96 | 8.7 | 15.6 | 0.00 | 0.00 | 0.00 | 53 | 1016.7 |
| 20260504170631 | 82 | 100 | 7.8 | 15.6 | 0.00 | 0.00 | 0.00 | 56 | 1016.7 |
| 20260504170131 | 82 | 97 | 6.1 | 12.2 | 0.00 | 0.00 | 0.00 | 54 | 1017.0 |
| 20260504150601 | 78 | 69 | 5.2 | 12.2 | 0.00 | 0.00 | 0.00 | 62 | 1017.7 |
| 20260504141030 | 75 | 72 | 4.3 | 13.9 | 0.00 | 0.00 | 0.00 | 68 | 1017.4 |
| 20260504140530 | 75 | 70 | 4.3 | 13.9 | 0.00 | 0.00 | 0.00 | 67 | 1017.5 |
| 20260504110429 | 65 | 40 | 1.7 | 2.6 | 0.00 | 0.00 | 0.00 | 88 | 1016.2 |
| 20260504100358 | 64 | 19 | 0.9 | 2.6 | 0.00 | 0.00 | 0.00 | 90 | 1015.9 |
| 20260504081858 | 66 | 25 | 1.7 | 1.7 | 0.00 | 0.01 | 0.00 | 87 | 1015.7 |
| 20260504080259 | 67 | 18 | 0.9 | 1.7 | 0.00 | 0.02 | 0.00 | 86 | 1015.8 |
| 20260504045929 | 69 | 51 | 0.9 | 2.6 | 0.00 | 0.06 | 0.00 | 82 | 1017.2 |
| 20260504045359 | 69 | 51 | 1.7 | 2.6 | 0.00 | 0.06 | 0.00 | 82 | 1017.3 |
| 20260504044258 | 70 | 57 | 1.7 | 2.6 | 0.00 | 0.06 | 0.00 | 82 | 1017.3 |
| 20260504043259 | 70 | 55 | 0.9 | 2.6 | 0.00 | 0.06 | 0.00 | 81 | 1017.5 |
| 20260504041729 | 70 | 71 | 1.7 | 3.5 | 0.00 | 0.06 | 0.00 | 81 | 1017.6 |
| 20260504041159 | 70 | 70 | 1.7 | 5.2 | 0.00 | 0.06 | 0.00 | 80 | 1017.5 |
| 20260504040628 | 70 | 68 | 1.7 | 5.2 | 0.00 | 0.06 | 0.00 | 81 | 1017.5 |
| 20260504040129 | 70 | 73 | 2.6 | 5.2 | 0.00 | 0.06 | 0.00 | 81 | 1017.5 |
| 20260504035028 | 70 | 74 | 2.6 | 5.2 | 0.00 | 0.06 | 0.06 | 80 | 1017.5 |
| 20260504034458 | 70 | 76 | 2.6 | 5.2 | 0.00 | 0.07 | 0.06 | 80 | 1017.5 |
| 20260504033959 | 70 | 76 | 2.6 | 5.2 | 0.00 | 0.07 | 0.06 | 80 | 1017.4 |
| 20260504033428 | 70 | 75 | 2.6 | 5.2 | 0.00 | 0.07 | 0.06 | 80 | 1017.5 |
| 20260504032859 | 70 | 76 | 2.6 | 6.1 | 0.00 | 0.07 | 0.06 | 80 | 1017.3 |
| 20260504032358 | 70 | 76 | 2.6 | 6.1 | 0.00 | 0.07 | 0.06 | 80 | 1017.4 |
| 20260504031858 | 70 | 74 | 2.6 | 5.2 | 0.00 | 0.07 | 0.06 | 80 | 1017.4 |
| 20260504030259 | 70 | 76 | 2.6 | 6.1 | 0.00 | 0.08 | 0.06 | 80 | 1017.6 |
| 20260504025158 | 70 | 74 | 2.6 | 5.2 | 0.00 | 0.08 | 0.06 | 80 | 1017.4 |
| 20260504024658 | 70 | 76 | 2.6 | 5.2 | 0.00 | 0.08 | 0.06 | 81 | 1017.4 |
| 20260504023029 | 70 | 80 | 2.6 | 6.1 | 0.00 | 0.08 | 0.06 | 81 | 1017.3 |
| 20260504020929 | 71 | 83 | 3.5 | 7.0 | 0.00 | 0.08 | 0.06 | 81 | 1017.1 |
| 20260504020429 | 71 | 81 | 3.5 | 7.0 | 0.00 | 0.08 | 0.06 | 81 | 1017.0 |
| 20260504015858 | 71 | 80 | 3.5 | 8.7 | 0.00 | 0.08 | 0.06 | 80 | 1017.0 |
| 20260504015359 | 71 | 83 | 3.5 | 8.7 | 0.00 | 0.08 | 0.06 | 80 | 1016.9 |
| 20260504014858 | 71 | 85 | 4.3 | 7.8 | 0.00 | 0.08 | 0.06 | 80 | 1016.9 |
| 20260504012258 | 71 | 81 | 4.3 | 9.6 | 0.00 | 0.08 | 0.06 | 80 | 1016.7 |
| 20260504011158 | 72 | 78 | 3.5 | 9.6 | 0.00 | 0.08 | 0.06 | 79 | 1016.8 |
| 20260504010659 | 72 | 77 | 3.5 | 9.6 | 0.00 | 0.08 | 0.06 | 79 | 1016.8 |
| 20260504010129 | 72 | 77 | 3.5 | 8.7 | 0.00 | 0.08 | 0.06 | 79 | 1016.7 |
| 20260504005558 | 72 | 78 | 4.3 | 9.6 | 0.00 | 0.08 | 0.06 | 79 | 1016.6 |
| 20260504005059 | 72 | 76 | 3.5 | 8.7 | 0.00 | 0.08 | 0.06 | 78 | 1016.3 |
| 20260504004528 | 72 | 79 | 3.5 | 9.6 | 0.00 | 0.08 | 0.06 | 79 | 1016.3 |
| 20260504003458 | 72 | 78 | 2.6 | 8.7 | 0.00 | 0.08 | 0.06 | 78 | 1016.1 |
| 20260504002458 | 72 | 79 | 4.3 | 9.6 | 0.00 | 0.08 | 0.06 | 78 | 1016.1 |
| 20260504001928 | 73 | 79 | 5.2 | 10.4 | 0.00 | 0.08 | 0.06 | 77 | 1016.1 |
| 20260504001428 | 73 | 80 | 4.3 | 10.4 | 0.00 | 0.08 | 0.06 | 77 | 1016.1 |
| 20260504000928 | 73 | 84 | 4.3 | 10.4 | 0.00 | 0.08 | 0.06 | 77 | 1016.2 |
| 20260504000358 | 73 | 80 | 6.1 | 11.3 | 0.00 | 0.08 | 0.06 | 77 | 1016.0 |
| 20260503235858 | 73 | 80 | 7.0 | 12.2 | 0.00 | 0.08 | 0.06 | 77 | 1015.9 |
| 20260503233328 | 74 | 84 | 6.1 | 13.0 | 0.00 | 0.08 | 0.06 | 75 | 1015.9 |
| 20260503232829 | 74 | 78 | 7.0 | 12.2 | 0.00 | 0.08 | 0.06 | 75 | 1015.9 |
| 20260503231828 | 74 | 77 | 5.2 | 12.2 | 0.00 | 0.08 | 0.06 | 76 | 1015.8 |
| 20260503230828 | 74 | 84 | 7.0 | 14.8 | 0.00 | 0.08 | 0.06 | 76 | 1015.7 |
| 20260503230328 | 74 | 86 | 7.0 | 14.8 | 0.00 | 0.08 | 0.06 | 75 | 1015.8 |
| 20260503225758 | 74 | 76 | 6.1 | 13.0 | 0.00 | 0.09 | 0.06 | 77 | 1015.7 |
| 20260503224159 | 75 | 86 | 6.1 | 13.0 | 0.00 | 0.10 | 0.06 | 74 | 1015.8 |
| 20260503223628 | 75 | 83 | 5.2 | 11.3 | 0.00 | 0.11 | 0.06 | 74 | 1015.7 |
| 20260503223128 | 75 | 84 | 5.2 | 11.3 | 0.00 | 0.11 | 0.06 | 75 | 1015.8 |
| 20260503222558 | 75 | 86 | 6.1 | 12.2 | 0.00 | 0.11 | 0.06 | 74 | 1015.7 |
| 20260503222058 | 75 | 85 | 5.2 | 12.2 | 0.00 | 0.11 | 0.06 | 74 | 1015.6 |
| 20260503221559 | 76 | 85 | 7.0 | 13.0 | 0.00 | 0.11 | 0.06 | 73 | 1015.6 |
| 20260503221028 | 76 | 94 | 7.8 | 13.0 | 0.00 | 0.11 | 0.06 | 73 | 1015.7 |
| 20260503220528 | 76 | 97 | 7.8 | 13.0 | 0.00 | 0.11 | 0.06 | 73 | 1015.6 |
| 20260503220029 | 76 | 96 | 7.8 | 12.2 | 0.00 | 0.11 | 0.06 | 74 | 1015.6 |
| 20260503215458 | 76 | 89 | 6.1 | 12.2 | 0.00 | 0.11 | 0.06 | 74 | 1015.6 |
| 20260503214428 | 76 | 82 | 6.1 | 11.3 | 0.00 | 0.11 | 0.06 | 73 | 1015.5 |
| 20260503213928 | 76 | 83 | 5.2 | 12.2 | 0.00 | 0.11 | 0.06 | 73 | 1015.4 |
| 20260503213428 | 76 | 84 | 5.2 | 12.2 | 0.00 | 0.11 | 0.06 | 72 | 1015.5 |
| 20260503212858 | 76 | 83 | 5.2 | 11.3 | 0.00 | 0.11 | 0.06 | 72 | 1015.5 |
| 20260503211759 | 77 | 93 | 4.3 | 9.6 | 0.00 | 0.11 | 0.06 | 73 | 1015.4 |
| 20260503211258 | 76 | 89 | 4.3 | 12.2 | 0.00 | 0.11 | 0.06 | 71 | 1015.5 |
| 20260503210758 | 76 | 92 | 7.0 | 12.2 | 0.00 | 0.12 | 0.06 | 71 | 1015.5 |
| 20260503210228 | 76 | 91 | 7.0 | 12.2 | 0.00 | 0.12 | 0.06 | 70 | 1015.6 |
| 20260503204659 | 77 | 88 | 6.1 | 10.4 | 0.00 | 0.13 | 0.06 | 68 | 1015.7 |
| 20260503204158 | 77 | 95 | 8.7 | 12.2 | 0.00 | 0.13 | 0.06 | 70 | 1015.7 |
| 20260503203658 | 77 | 96 | 7.0 | 12.2 | 0.00 | 0.13 | 0.06 | 70 | 1015.7 |
| 20260503203158 | 77 | 88 | 3.5 | 12.2 | 0.00 | 0.13 | 0.06 | 71 | 1015.7 |
| 20260503202628 | 77 | 80 | 2.6 | 9.6 | 0.00 | 0.13 | 0.06 | 69 | 1015.7 |
| 20260503202128 | 76 | 82 | 5.2 | 11.3 | 0.00 | 0.13 | 0.06 | 69 | 1015.9 |